User: anonymous   Login
Location: Caltech
(34.1382°N, 118.1253°W)
Time: 06:18:08
(UTC-08:00)
Language:

Cosmos-2242 - Orbit

View from above orbital plane
View from above orbital plane
View from above satellite
View from above satellite

Ground track
Ground track

The orbit data is extracted from the following two-line orbital elements,

1 22626U 93024A   14331.17055679  .00002061  00000-0  23058-3 0  2711
2 22626 082.5230 200.8100 0019006 340.5229 019.5259 14.86334205167474
Epoch (UTC): 27 November 2014 04:05:36
Eccentricity: 0.0019006
inclination: 82.5230°
perigee height: 596 km
apogee height: 622 km
right ascension of ascending node: 200.8100°
argument of perigee: 340.5229°
revolutions per day: 14.86334205
mean anomaly at epoch: 19.5259°
orbit number at epoch: 16747

The dashed part of the orbit path shows where the satellite is in the earth's shadow,  

DLR